[[{"header":{"parameterUnit":"m.s-1","parameterCategory":1,"la1":30.2992,"la2":30.254,"lo1":-89.0895,"lo2":-89.0443,"dy":0.0025,"dx":0.0025,"nx":19,"ny":19,"refTime":"2026-05-04T09:00:00:Z","depth":0,"parameterNumber":2,"parameterNumberName":"U-component_of_WINDS"},"data":[0,0,0,1.946,1.9462,1.9509,1.9509,1.9603,1.9604,0,0,0,0,0,0,0,0,0,0,0,1.9465,1.9467,1.946,1.9462,1.9509,1.9509,1.9603,1.9604,0,0,0,0,0,0,0,0,0,0,0,1.9465,1.9466,1.9468,1.9462,1.9509,1.9509,1.9603,1.9555,0,0,0,0,0,0,0,0,0,0,1.9504,1.9526,1.9466,1.9468,1.9463,1.9509,1.9509,1.9552,1.9558,1.9596,0,1.9633,0,1.962,1.9613,1.9613,0,0,0,1.9448,1.9522,1.9517,1.9468,1.9463,1.9509,1.9484,1.9555,1.9562,1.9604,1.9634,1.9637,1.9622,1.9613,1.9614,1.9878,1.988,0,0,1.9445,1.9484,1.9513,1.9523,1.9517,1.9482,1.9486,1.9559,1.9595,1.9634,1.9638,1.9624,1.9614,1.9615,1.9877,1.9879,0,0,0,1.9447,1.9483,1.9476,1.952,1.9526,1.9484,1.9488,1.9592,1.9586,1.9639,1.9625,1.9615,1.9616,1.9874,1.9877,2.0013,0,0,0,1.9445,1.9484,1.9476,1.95,1.9525,1.9559,1.952,1.9581,1.9588,1.9624,1.9615,1.9618,1.9872,1.9876,2.0004,2.0071,0,0,0,1.9456,1.9485,1.9498,1.9502,1.9524,1.9557,1.9555,1.9582,1.958,1.9613,1.9618,1.9871,1.9875,1.9997,2.0058,2.0156,0,0,0,1.9478,1.9615,1.9501,1.9648,1.9524,1.9639,1.9554,1.9638,1.9682,1.9616,1.9872,1.9877,1.9994,2.0051,2.0148,2.0248,2.0291,0,0,1.9673,1.964,1.9723,1.9623,1.9769,1.9629,1.9795,1.9797,1.9764,1.9842,1.9848,2.0007,2.0058,2.0154,2.0517,2.0552,0,0,0,1.9799,1.986,1.989,1.9935,1.994,1.9953,1.9925,1.9927,1.9992,1.9812,2.0065,2.0094,2.0149,2.0195,2.0225,2.0272,1.9899,1.9898,1.9898,2.0131,2.0083,2.022,2.0178,2.0222,2.0195,2.0227,2.0225,2.016,2.0221,2.0246,2.0472,2.0527,2.0549,2.0599,2.029,2.0291,2.0291,2.0292,2.0416,2.0497,2.041,2.0513,2.0462,2.0547,2.0526,2.0479,2.0553,2.0448,2.0494,2.0389,2.059,2.0631,2.0301,2.03,2.0298,2.0298,2.0297,2.0632,2.0663,2.0663,2.0725,2.0779,2.073,2.0807,2.0755,2.0707,2.0752,2.0776,2.0774,2.0769,2.0766,2.0767,2.0768,2.0769,2.0769,2.077,2.0859,2.0854,2.0924,2.0945,2.0969,2.0994,2.0969,2.0992,2.1004,2.0961,2.0961,2.0895,2.0616,2.0551,2.0782,2.078,2.0778,2.0777,2.0776,2.1173,2.1094,2.1203,2.1228,2.1249,2.1309,2.1242,2.1293,2.1304,2.1344,2.1267,2.1068,2.1031,2.1007,2.0953,2.1274,2.1274,2.1274,2.1274,2.1359,2.1334,2.1437,2.1481,2.1516,2.1468,2.1597,2.158,2.155,2.1555,2.15,2.1422,2.1399,2.1375,2.1343,2.1292,2.1692,2.1693,2.1693,2.1552,2.1529,2.1648,2.1618,2.1632,2.1646,2.1766,2.1822,2.177,2.1709,2.1559,2.1541,2.1414,2.1374,2.1313,2.1264,2.1169,0,0]},{"header":{"parameterUnit":"m.s-1","parameterCategory":1,"la1":30.2992,"la2":30.254,"lo1":-89.0895,"lo2":-89.0443,"dy":0.0025,"dx":0.0025,"nx":19,"ny":19,"refTime":"2026-05-04T09:00:00:Z","depth":0,"parameterNumber":3,"parameterNumberName":"V-component_of_WINDS"},"data":[0,0,0,-2.34,-2.3403,-2.3575,-2.3576,-2.3786,-2.3787,0,0,0,0,0,0,0,0,0,0,0,-2.3342,-2.3343,-2.3399,-2.3404,-2.3575,-2.3576,-2.3785,-2.3787,0,0,0,0,0,0,0,0,0,0,0,-2.3341,-2.3343,-2.3344,-2.3404,-2.3575,-2.3576,-2.3785,-2.3659,0,0,0,0,0,0,0,0,0,0,-2.3494,-2.3434,-2.3343,-2.3344,-2.3405,-2.3575,-2.3576,-2.3653,-2.3667,-2.3703,0,-2.3733,0,-2.3764,-2.3801,-2.3801,0,0,0,-2.3409,-2.3422,-2.3475,-2.3345,-2.3407,-2.3575,-2.3499,-2.3661,-2.3676,-2.3721,-2.3736,-2.3744,-2.3767,-2.3802,-2.3803,-2.3994,-2.3995,0,0,-2.3399,-2.3369,-2.3464,-2.3484,-2.3457,-2.3494,-2.3505,-2.367,-2.3685,-2.3737,-2.3749,-2.377,-2.3803,-2.3805,-2.3994,-2.3994,0,0,0,-2.3369,-2.3362,-2.3411,-2.3475,-2.3507,-2.3499,-2.3511,-2.3678,-2.3696,-2.3752,-2.3773,-2.3805,-2.3807,-2.3993,-2.3994,-2.3996,0,0,0,-2.3363,-2.3345,-2.3407,-2.339,-2.3504,-2.3594,-2.3514,-2.3684,-2.3704,-2.3772,-2.3805,-2.3809,-2.3992,-2.3993,-2.3994,-2.4001,0,0,0,-2.3333,-2.3341,-2.3364,-2.3388,-2.3461,-2.3592,-2.3621,-2.3689,-2.3717,-2.3802,-2.3809,-2.3992,-2.3993,-2.3993,-2.3999,-2.4042,0,0,0,-2.3293,-2.3363,-2.3363,-2.345,-2.3459,-2.3592,-2.362,-2.3721,-2.3794,-2.3806,-2.3992,-2.3994,-2.3992,-2.3998,-2.404,-2.4072,-2.4082,0,0,-2.3365,-2.3371,-2.3425,-2.343,-2.3555,-2.3569,-2.3695,-2.3791,-2.3827,-2.3936,-2.3942,-2.3995,-2.3999,-2.4042,-2.4155,-2.4162,0,0,0,-2.3437,-2.3475,-2.3515,-2.3583,-2.3658,-2.3723,-2.3802,-2.3838,-2.3933,-2.3877,-2.4024,-2.4027,-2.4053,-2.407,-2.4077,-2.4101,-2.4,-2.4,-2.4,-2.3495,-2.3537,-2.3629,-2.3692,-2.3758,-2.384,-2.3897,-2.396,-2.3983,-2.4017,-2.4049,-2.4113,-2.4131,-2.4136,-2.4161,-2.4071,-2.4071,-2.4071,-2.4071,-2.3603,-2.3664,-2.3694,-2.3794,-2.3839,-2.3923,-2.4006,-2.402,-2.4105,-2.4092,-2.4117,-2.4097,-2.4144,-2.4168,-2.4072,-2.4071,-2.4071,-2.4071,-2.4071,-2.3644,-2.3681,-2.3723,-2.3826,-2.3901,-2.3964,-2.4045,-2.4083,-2.412,-2.4145,-2.4183,-2.4183,-2.4187,-2.4161,-2.4161,-2.4162,-2.4162,-2.4162,-2.4162,-2.3669,-2.3717,-2.378,-2.3867,-2.3916,-2.3985,-2.407,-2.4119,-2.4184,-2.4206,-2.4206,-2.4226,-2.4141,-2.4118,-2.4166,-2.4165,-2.4165,-2.4164,-2.4164,-2.376,-2.3746,-2.3843,-2.3892,-2.3997,-2.4069,-2.4119,-2.4217,-2.4264,-2.4302,-2.4318,-2.4249,-2.4258,-2.4252,-2.4233,-2.4309,-2.4309,-2.4309,-2.4309,-2.3794,-2.3803,-2.3911,-2.3987,-2.4066,-2.4121,-2.423,-2.4297,-2.4364,-2.4396,-2.4391,-2.437,-2.4363,-2.4376,-2.4368,-2.4351,-2.4454,-2.4454,-2.4454,-2.3852,-2.387,-2.3955,-2.402,-2.4105,-2.4178,-2.4282,-2.4369,-2.4442,-2.4461,-2.4421,-2.4415,-2.4381,-2.4368,-2.4384,-2.4371,-2.434,0,0]}]]